Year,Month,Day,Hour,Minute,Value (Times are PST for temperature in C)
2013,04,25,01,13,9.20
2013,04,25,01,14,9.20
2013,04,25,01,15,9.20
2013,04,25,01,16,9.20
2013,04,25,01,17,9.20
2013,04,25,01,18,9.20
2013,04,25,01,19,9.20
2013,04,25,01,20,9.20
2013,04,25,01,21,9.20
2013,04,25,01,22,9.20
2013,04,25,01,23,9.20
2013,04,25,01,24,9.20
2013,04,25,01,25,9.20
2013,04,25,01,26,9.20
2013,04,25,01,27,9.20
2013,04,25,01,28,9.10
2013,04,25,01,29,9.10
2013,04,25,01,30,9.10
2013,04,25,01,31,9.10
2013,04,25,01,32,9.10
2013,04,25,01,33,9.10
2013,04,25,01,34,9.10
2013,04,25,01,35,9.10
2013,04,25,01,36,9.10
2013,04,25,01,37,9.10
2013,04,25,01,38,9.10
2013,04,25,01,39,9.10
2013,04,25,01,40,9.10
2013,04,25,01,41,9.10
2013,04,25,01,42,9.10
2013,04,25,01,43,9.00
2013,04,25,01,44,9.00
2013,04,25,01,45,9.00
2013,04,25,01,46,9.00
2013,04,25,01,47,9.00
2013,04,25,01,48,9.00
2013,04,25,01,49,9.00
2013,04,25,01,50,9.00
2013,04,25,01,51,9.00
2013,04,25,01,52,9.00
2013,04,25,01,53,9.00
2013,04,25,01,54,9.00
2013,04,25,01,55,9.00
2013,04,25,01,56,9.00
2013,04,25,01,57,9.00
2013,04,25,01,58,8.90
2013,04,25,01,59,8.90
2013,04,25,02,00,8.90
2013,04,25,02,01,8.90
2013,04,25,02,02,8.90
2013,04,25,02,03,8.90
2013,04,25,02,04,8.90
2013,04,25,02,05,8.90
2013,04,25,02,06,8.90
2013,04,25,02,07,8.90
2013,04,25,02,08,8.90
2013,04,25,02,09,8.90
2013,04,25,02,10,8.90
2013,04,25,02,11,8.90
2013,04,25,02,12,8.90
2013,04,25,02,13,8.90
2013,04,25,02,14,8.90
2013,04,25,02,15,8.90
2013,04,25,02,16,8.90
2013,04,25,02,17,8.90
2013,04,25,02,18,8.90
2013,04,25,02,19,8.90
2013,04,25,02,20,8.90
2013,04,25,02,21,8.90
2013,04,25,02,22,8.90
2013,04,25,02,23,8.90
2013,04,25,02,24,8.90
2013,04,25,02,25,8.90
2013,04,25,02,26,8.90
2013,04,25,02,27,8.90
2013,04,25,02,28,8.80
2013,04,25,02,29,8.80
2013,04,25,02,30,8.80
2013,04,25,02,31,8.80
2013,04,25,02,32,8.80
2013,04,25,02,33,8.80
2013,04,25,02,34,8.80
2013,04,25,02,35,8.80
2013,04,25,02,36,8.80
2013,04,25,02,37,8.80
2013,04,25,02,38,8.80
2013,04,25,02,39,8.80
2013,04,25,02,40,8.80
2013,04,25,02,41,8.80
2013,04,25,02,42,8.80
2013,04,25,02,43,8.80
2013,04,25,02,44,8.80
2013,04,25,02,45,8.80
2013,04,25,02,46,8.80
2013,04,25,02,47,8.80
2013,04,25,02,48,8.80
2013,04,25,02,49,8.80
2013,04,25,02,50,8.80
2013,04,25,02,51,8.80
2013,04,25,02,52,8.80
2013,04,25,02,53,8.80
2013,04,25,02,54,8.80
2013,04,25,02,55,8.80
2013,04,25,02,56,8.80
2013,04,25,02,57,8.80
2013,04,25,02,58,8.80
2013,04,25,02,59,8.80
2013,04,25,03,00,8.80
2013,04,25,03,01,8.80
2013,04,25,03,02,8.80
2013,04,25,03,03,8.80
2013,04,25,03,04,8.80
2013,04,25,03,05,8.80
2013,04,25,03,06,8.80
2013,04,25,03,07,8.80
2013,04,25,03,08,8.80
2013,04,25,03,09,8.80
2013,04,25,03,10,8.80
2013,04,25,03,11,8.80
2013,04,25,03,12,8.80
2013,04,25,03,13,8.80
2013,04,25,03,14,8.80
2013,04,25,03,15,8.80
2013,04,25,03,16,8.80
2013,04,25,03,17,8.80
2013,04,25,03,18,8.80
2013,04,25,03,19,8.80
2013,04,25,03,20,8.80
2013,04,25,03,21,8.80
2013,04,25,03,22,8.80
2013,04,25,03,23,8.80
2013,04,25,03,24,8.80
2013,04,25,03,25,8.80
2013,04,25,03,26,8.80
2013,04,25,03,27,8.80
2013,04,25,03,28,8.70
2013,04,25,03,29,8.70
2013,04,25,03,30,8.70
2013,04,25,03,31,8.70
2013,04,25,03,32,8.70
2013,04,25,03,33,8.70
2013,04,25,03,34,8.70
2013,04,25,03,35,8.70
2013,04,25,03,36,8.70
2013,04,25,03,37,8.70
2013,04,25,03,38,8.70
2013,04,25,03,39,8.70
2013,04,25,03,40,8.70
2013,04,25,03,41,8.70
2013,04,25,03,42,8.70
2013,04,25,03,43,8.70
2013,04,25,03,44,8.70
2013,04,25,03,45,8.70
2013,04,25,03,46,8.70
2013,04,25,03,47,8.70
2013,04,25,03,48,8.70
2013,04,25,03,49,8.70
2013,04,25,03,50,8.70
2013,04,25,03,51,8.70
2013,04,25,03,52,8.70
2013,04,25,03,53,8.70
2013,04,25,03,54,8.70
2013,04,25,03,55,8.70
2013,04,25,03,56,8.70
2013,04,25,03,57,8.70
2013,04,25,03,58,8.50
2013,04,25,03,59,8.50
2013,04,25,04,00,8.50
2013,04,25,04,01,8.50
2013,04,25,04,02,8.50
2013,04,25,04,03,8.50
2013,04,25,04,04,8.50
2013,04,25,04,05,8.50
2013,04,25,04,06,8.50
2013,04,25,04,07,8.50
2013,04,25,04,08,8.50
2013,04,25,04,09,8.50
2013,04,25,04,10,8.50
2013,04,25,04,11,8.50
2013,04,25,04,12,8.50
2013,04,25,04,13,8.60
2013,04,25,04,14,8.60
2013,04,25,04,15,8.60
2013,04,25,04,16,8.60
2013,04,25,04,17,8.60
2013,04,25,04,18,8.60
2013,04,25,04,19,8.60
2013,04,25,04,20,8.60
2013,04,25,04,21,8.60
2013,04,25,04,22,8.60
2013,04,25,04,23,8.60
2013,04,25,04,24,8.60
2013,04,25,04,25,8.60
2013,04,25,04,26,8.60
2013,04,25,04,27,8.60
2013,04,25,04,28,8.70
2013,04,25,04,29,8.70
2013,04,25,04,30,8.70
2013,04,25,04,31,8.70
2013,04,25,04,32,8.70
2013,04,25,04,33,8.70
2013,04,25,04,34,8.70
2013,04,25,04,35,8.70
2013,04,25,04,36,8.70
2013,04,25,04,37,8.70
2013,04,25,04,38,8.70
2013,04,25,04,39,8.70
2013,04,25,04,40,8.70
2013,04,25,04,41,8.70
2013,04,25,04,42,8.70
2013,04,25,04,43,8.70
2013,04,25,04,44,8.70
2013,04,25,04,45,8.70
2013,04,25,04,46,8.70
2013,04,25,04,47,8.70
2013,04,25,04,48,8.70
2013,04,25,04,49,8.70
2013,04,25,04,50,8.70
2013,04,25,04,51,8.70
2013,04,25,04,52,8.70
2013,04,25,04,53,8.70
2013,04,25,04,54,8.70
2013,04,25,04,55,8.70
2013,04,25,04,56,8.70
2013,04,25,04,57,8.70
2013,04,25,04,58,8.70
2013,04,25,04,59,8.70
2013,04,25,05,00,8.70
2013,04,25,05,01,8.70
2013,04,25,05,02,8.70
2013,04,25,05,03,8.70
2013,04,25,05,04,8.70
2013,04,25,05,05,8.70
2013,04,25,05,06,8.70
2013,04,25,05,07,8.70
2013,04,25,05,08,8.70
2013,04,25,05,09,8.70
2013,04,25,05,10,8.70
2013,04,25,05,11,8.70
2013,04,25,05,12,8.70
2013,04,25,05,13,8.70
2013,04,25,05,14,8.70
2013,04,25,05,15,8.70
2013,04,25,05,16,8.70
2013,04,25,05,17,8.70
2013,04,25,05,18,8.70
2013,04,25,05,19,8.70
2013,04,25,05,20,8.70
2013,04,25,05,21,8.70
2013,04,25,05,22,8.70
2013,04,25,05,23,8.70
2013,04,25,05,24,8.70
2013,04,25,05,25,8.70
2013,04,25,05,26,8.70
2013,04,25,05,27,8.70
2013,04,25,05,28,8.40
2013,04,25,05,29,8.40
2013,04,25,05,30,8.40
2013,04,25,05,31,8.40
2013,04,25,05,32,8.40
2013,04,25,05,33,8.40
2013,04,25,05,34,8.40
2013,04,25,05,35,8.40
2013,04,25,05,36,8.40
2013,04,25,05,37,8.40
2013,04,25,05,38,8.40
2013,04,25,05,39,8.40
2013,04,25,05,40,8.40
2013,04,25,05,41,8.40
2013,04,25,05,42,8.40
2013,04,25,05,43,7.90
2013,04,25,05,44,7.90
2013,04,25,05,45,7.90
2013,04,25,05,46,7.90
2013,04,25,05,47,7.90
2013,04,25,05,48,7.90
2013,04,25,05,49,7.90
2013,04,25,05,50,7.90
2013,04,25,05,51,7.90
2013,04,25,05,52,7.90
2013,04,25,05,53,7.90
2013,04,25,05,54,7.90
2013,04,25,05,55,7.90
2013,04,25,05,56,7.90
2013,04,25,05,57,7.90
2013,04,25,05,58,7.90
2013,04,25,05,59,7.90
2013,04,25,06,00,7.90
2013,04,25,06,01,7.90
2013,04,25,06,02,7.90
2013,04,25,06,03,7.90
2013,04,25,06,04,7.90
2013,04,25,06,05,7.90
2013,04,25,06,06,7.90
2013,04,25,06,07,7.90
2013,04,25,06,08,7.90
2013,04,25,06,09,7.90
2013,04,25,06,10,7.90
2013,04,25,06,11,7.90
2013,04,25,06,12,7.90
2013,04,25,06,13,8.20
2013,04,25,06,14,8.20
2013,04,25,06,15,8.20
2013,04,25,06,16,8.20
2013,04,25,06,17,8.20
2013,04,25,06,18,8.20
2013,04,25,06,19,8.20
2013,04,25,06,20,8.20
2013,04,25,06,21,8.20
2013,04,25,06,22,8.20
2013,04,25,06,23,8.20
2013,04,25,06,24,8.20
2013,04,25,06,25,8.20
2013,04,25,06,26,8.20
2013,04,25,06,27,8.20
2013,04,25,06,28,8.20
2013,04,25,06,29,8.20
2013,04,25,06,30,8.20
2013,04,25,06,31,8.20
2013,04,25,06,32,8.20
2013,04,25,06,33,8.20
2013,04,25,06,34,8.20
2013,04,25,06,35,8.20
2013,04,25,06,36,8.20
2013,04,25,06,37,8.20
2013,04,25,06,38,8.20
2013,04,25,06,39,8.20
2013,04,25,06,40,8.20
2013,04,25,06,41,8.20
2013,04,25,06,42,8.20
2013,04,25,06,43,8.30
2013,04,25,06,44,8.30
2013,04,25,06,45,8.30
2013,04,25,06,46,8.30
2013,04,25,06,47,8.30
2013,04,25,06,48,8.30
2013,04,25,06,49,8.30
2013,04,25,06,50,8.30
2013,04,25,06,51,8.30
2013,04,25,06,52,8.30
2013,04,25,06,53,8.30
2013,04,25,06,54,8.30
2013,04,25,06,55,8.30
2013,04,25,06,56,8.30
2013,04,25,06,57,8.30
2013,04,25,06,58,8.10
2013,04,25,06,59,8.10
2013,04,25,07,00,8.10
2013,04,25,07,01,8.10
2013,04,25,07,02,8.10
2013,04,25,07,03,8.10
2013,04,25,07,04,8.10
2013,04,25,07,05,8.10
2013,04,25,07,06,8.10
2013,04,25,07,07,8.10
2013,04,25,07,08,8.10
2013,04,25,07,09,8.10
2013,04,25,07,10,8.10
2013,04,25,07,11,8.10
2013,04,25,07,12,8.10
2013,04,25,07,13,7.70
2013,04,25,07,14,7.70
2013,04,25,07,15,7.70
2013,04,25,07,16,7.70
2013,04,25,07,17,7.70
2013,04,25,07,18,7.70
2013,04,25,07,19,7.70
2013,04,25,07,20,7.70
2013,04,25,07,21,7.70
2013,04,25,07,22,7.70
2013,04,25,07,23,7.70
2013,04,25,07,24,7.70
2013,04,25,07,25,7.70
2013,04,25,07,26,7.70
2013,04,25,07,27,7.70
2013,04,25,07,28,8.00
2013,04,25,07,29,8.00
2013,04,25,07,30,8.00
2013,04,25,07,31,8.00
2013,04,25,07,32,8.00
2013,04,25,07,33,8.00
2013,04,25,07,34,8.00
2013,04,25,07,35,8.00
2013,04,25,07,36,8.00
2013,04,25,07,37,8.00
2013,04,25,07,38,8.00
2013,04,25,07,39,8.00
2013,04,25,07,40,8.00
2013,04,25,07,41,8.00
2013,04,25,07,42,8.00
2013,04,25,07,43,8.40
2013,04,25,07,44,8.40
2013,04,25,07,45,8.40
2013,04,25,07,46,8.40
2013,04,25,07,47,8.40
2013,04,25,07,48,8.40
2013,04,25,07,49,8.40
2013,04,25,07,50,8.40
2013,04,25,07,51,8.40
2013,04,25,07,52,8.40
2013,04,25,07,53,8.40
2013,04,25,07,54,8.40
2013,04,25,07,55,8.40
2013,04,25,07,56,8.40
2013,04,25,07,57,8.40
2013,04,25,07,58,8.80
2013,04,25,07,59,8.80
2013,04,25,08,00,8.80
2013,04,25,08,01,8.80
2013,04,25,08,02,8.80
2013,04,25,08,03,8.80
2013,04,25,08,04,8.80
2013,04,25,08,05,8.80
2013,04,25,08,06,8.80
2013,04,25,08,07,8.80
2013,04,25,08,08,8.80
2013,04,25,08,09,8.80
2013,04,25,08,10,8.80
2013,04,25,08,11,8.80
2013,04,25,08,12,8.80
2013,04,25,08,13,9.60
2013,04,25,08,14,9.60
2013,04,25,08,15,9.60
2013,04,25,08,16,9.60
2013,04,25,08,17,9.60
2013,04,25,08,18,9.60
2013,04,25,08,19,9.60
2013,04,25,08,20,9.60
2013,04,25,08,21,9.60
2013,04,25,08,22,9.60
2013,04,25,08,23,9.60
2013,04,25,08,24,9.60
2013,04,25,08,25,9.60
2013,04,25,08,26,9.60
2013,04,25,08,27,9.60
2013,04,25,08,28,10.00
2013,04,25,08,29,10.00
2013,04,25,08,30,10.00
2013,04,25,08,31,10.00
2013,04,25,08,32,10.00
2013,04,25,08,33,10.00
2013,04,25,08,34,10.00
2013,04,25,08,35,10.00
2013,04,25,08,36,10.00
2013,04,25,08,37,10.00
2013,04,25,08,38,10.00
2013,04,25,08,39,10.00
2013,04,25,08,40,10.00
2013,04,25,08,41,10.00
2013,04,25,08,42,10.00
2013,04,25,08,43,10.30
2013,04,25,08,44,10.30
2013,04,25,08,45,10.30
2013,04,25,08,46,10.30
2013,04,25,08,47,10.30
2013,04,25,08,48,10.30
2013,04,25,08,49,10.30
2013,04,25,08,50,10.30
2013,04,25,08,51,10.30
2013,04,25,08,52,10.30
2013,04,25,08,53,10.30
2013,04,25,08,54,10.30
2013,04,25,08,55,10.30
2013,04,25,08,56,10.30
2013,04,25,08,57,10.30
2013,04,25,08,58,10.30
2013,04,25,08,59,10.30
2013,04,25,09,00,10.30
2013,04,25,09,01,10.30
2013,04,25,09,02,10.30
2013,04,25,09,03,10.30
2013,04,25,09,04,10.30
2013,04,25,09,05,10.30
2013,04,25,09,06,10.30
2013,04,25,09,07,10.30
2013,04,25,09,08,10.30
2013,04,25,09,09,10.30
2013,04,25,09,10,10.30
2013,04,25,09,11,10.30
2013,04,25,09,12,10.30
2013,04,25,09,13,10.30
2013,04,25,09,14,10.30
2013,04,25,09,15,10.30
2013,04,25,09,16,10.30
2013,04,25,09,17,10.30
2013,04,25,09,18,10.30
2013,04,25,09,19,10.30
2013,04,25,09,20,10.30
2013,04,25,09,21,10.30
2013,04,25,09,22,10.30
2013,04,25,09,23,10.30
2013,04,25,09,24,10.30
2013,04,25,09,25,10.30
2013,04,25,09,26,10.30
2013,04,25,09,27,10.30
2013,04,25,09,28,10.40
2013,04,25,09,29,10.40
2013,04,25,09,30,10.40
2013,04,25,09,31,10.40
2013,04,25,09,32,10.40
2013,04,25,09,33,10.40
2013,04,25,09,34,10.40
2013,04,25,09,35,10.40
2013,04,25,09,36,10.40
2013,04,25,09,37,10.40
2013,04,25,09,38,10.40
2013,04,25,09,39,10.40
2013,04,25,09,40,10.40
2013,04,25,09,41,10.40
2013,04,25,09,42,10.40
2013,04,25,09,43,10.80
2013,04,25,09,44,10.80
2013,04,25,09,45,10.80
2013,04,25,09,46,10.80
2013,04,25,09,47,10.80
2013,04,25,09,48,10.80
2013,04,25,09,49,10.80
2013,04,25,09,50,10.80
2013,04,25,09,51,10.80
2013,04,25,09,52,10.80
2013,04,25,09,53,10.80
2013,04,25,09,54,10.80
2013,04,25,09,55,10.80
2013,04,25,09,56,10.80
2013,04,25,09,57,10.80
2013,04,25,09,58,10.80
2013,04,25,09,59,10.80
2013,04,25,10,00,10.80
2013,04,25,10,01,10.80
2013,04,25,10,02,10.80
2013,04,25,10,03,10.80
2013,04,25,10,04,10.80
2013,04,25,10,05,10.80
2013,04,25,10,06,10.80
2013,04,25,10,07,10.80
2013,04,25,10,08,10.80
2013,04,25,10,09,10.80
2013,04,25,10,10,10.80
2013,04,25,10,11,10.80
2013,04,25,10,12,10.80
2013,04,25,10,13,11.00
2013,04,25,10,14,11.00
2013,04,25,10,15,11.00
2013,04,25,10,16,11.00
2013,04,25,10,17,11.00
2013,04,25,10,18,11.00
2013,04,25,10,19,11.00
2013,04,25,10,20,11.00
2013,04,25,10,21,11.00
2013,04,25,10,22,11.00
2013,04,25,10,23,11.00
2013,04,25,10,24,11.00
2013,04,25,10,25,11.00
2013,04,25,10,26,11.00
2013,04,25,10,27,11.00
2013,04,25,10,28,10.80
2013,04,25,10,29,10.80
2013,04,25,10,30,10.80
2013,04,25,10,31,10.80
2013,04,25,10,32,10.80
2013,04,25,10,33,10.80
2013,04,25,10,34,10.80
2013,04,25,10,35,10.80
2013,04,25,10,36,10.80
2013,04,25,10,37,10.80
2013,04,25,10,38,10.80
2013,04,25,10,39,10.80
2013,04,25,10,40,10.80
2013,04,25,10,41,10.80
2013,04,25,10,42,10.80
2013,04,25,10,43,10.70
2013,04,25,10,44,10.70
2013,04,25,10,45,10.70
2013,04,25,10,46,10.70
2013,04,25,10,47,10.70
2013,04,25,10,48,10.70
2013,04,25,10,49,10.70
2013,04,25,10,50,10.70
2013,04,25,10,51,10.70
2013,04,25,10,52,10.70
2013,04,25,10,53,10.70
2013,04,25,10,54,10.70
2013,04,25,10,55,10.70
2013,04,25,10,56,10.70
2013,04,25,10,57,10.70
2013,04,25,10,58,10.80
2013,04,25,10,59,10.80
2013,04,25,11,00,10.80
2013,04,25,11,01,10.80
2013,04,25,11,02,10.80
2013,04,25,11,03,10.80
2013,04,25,11,04,10.80
2013,04,25,11,05,10.80
2013,04,25,11,06,10.80
2013,04,25,11,07,10.80
2013,04,25,11,08,10.80
2013,04,25,11,09,10.80
2013,04,25,11,10,10.80
2013,04,25,11,11,10.80
2013,04,25,11,12,10.80
2013,04,25,11,13,10.70
2013,04,25,11,14,10.70
2013,04,25,11,15,10.70
2013,04,25,11,16,10.70
2013,04,25,11,17,10.70
2013,04,25,11,18,10.70
2013,04,25,11,19,10.70
2013,04,25,11,20,10.70
2013,04,25,11,21,10.70
2013,04,25,11,22,10.70
2013,04,25,11,23,10.70
2013,04,25,11,24,10.70
2013,04,25,11,25,10.70
2013,04,25,11,26,10.70
2013,04,25,11,27,10.70
2013,04,25,11,28,10.90
2013,04,25,11,29,10.90
2013,04,25,11,30,10.90
2013,04,25,11,31,10.90
2013,04,25,11,32,10.90
2013,04,25,11,33,10.90
2013,04,25,11,34,10.90
2013,04,25,11,35,10.90
2013,04,25,11,36,10.90
2013,04,25,11,37,10.90
2013,04,25,11,38,10.90
2013,04,25,11,39,10.90
2013,04,25,11,40,10.90
2013,04,25,11,41,10.90
2013,04,25,11,42,10.90
2013,04,25,11,43,10.80
2013,04,25,11,44,10.80
2013,04,25,11,45,10.80
2013,04,25,11,46,10.80
2013,04,25,11,47,10.80
2013,04,25,11,48,10.80
2013,04,25,11,49,10.80
2013,04,25,11,50,10.80
2013,04,25,11,51,10.80
2013,04,25,11,52,10.80
2013,04,25,11,53,10.80
2013,04,25,11,54,10.80
2013,04,25,11,55,10.80
2013,04,25,11,56,10.80
2013,04,25,11,57,10.80
2013,04,25,11,58,10.30
2013,04,25,11,59,10.30
2013,04,25,12,00,10.30
2013,04,25,12,01,10.30
2013,04,25,12,02,10.30
2013,04,25,12,03,10.30
2013,04,25,12,04,10.30
2013,04,25,12,05,10.30
2013,04,25,12,06,10.30
2013,04,25,12,07,10.30
2013,04,25,12,08,10.30
2013,04,25,12,09,10.30
2013,04,25,12,10,10.30
2013,04,25,12,11,10.30
2013,04,25,12,12,10.30
2013,04,25,12,13,10.40
2013,04,25,12,14,10.40
2013,04,25,12,15,10.40
2013,04,25,12,16,10.40
2013,04,25,12,17,10.40
2013,04,25,12,18,10.40
2013,04,25,12,19,10.40
2013,04,25,12,20,10.40
2013,04,25,12,21,10.40
2013,04,25,12,22,10.40
2013,04,25,12,23,10.40
2013,04,25,12,24,10.40
2013,04,25,12,25,10.40
2013,04,25,12,26,10.40
2013,04,25,12,27,10.40
2013,04,25,12,28,10.80
2013,04,25,12,29,10.80
2013,04,25,12,30,10.80
2013,04,25,12,31,10.80
2013,04,25,12,32,10.80
2013,04,25,12,33,10.80
2013,04,25,12,34,10.80
2013,04,25,12,35,10.80
2013,04,25,12,36,10.80
2013,04,25,12,37,10.80
2013,04,25,12,38,10.80
2013,04,25,12,39,10.80
2013,04,25,12,40,10.80
2013,04,25,12,41,10.80
2013,04,25,12,42,10.80
2013,04,25,12,43,10.40
2013,04,25,12,44,10.40
2013,04,25,12,45,10.40
2013,04,25,12,46,10.40
2013,04,25,12,47,10.40
2013,04,25,12,48,10.40
2013,04,25,12,49,10.40
2013,04,25,12,50,10.40
2013,04,25,12,51,10.40
2013,04,25,12,52,10.40
2013,04,25,12,53,10.40
2013,04,25,12,54,10.40
2013,04,25,12,55,10.40
2013,04,25,12,56,10.40
2013,04,25,12,57,10.40
2013,04,25,12,58,10.40
2013,04,25,12,59,10.40
2013,04,25,13,00,10.40
2013,04,25,13,01,10.40
2013,04,25,13,02,10.40
2013,04,25,13,03,10.40
2013,04,25,13,04,10.40
2013,04,25,13,05,10.40
2013,04,25,13,06,10.40
2013,04,25,13,07,10.40
2013,04,25,13,08,10.40
2013,04,25,13,09,10.40
2013,04,25,13,10,10.40
2013,04,25,13,11,10.40
2013,04,25,13,12,10.40
2013,04,25,13,13,10.60
2013,04,25,13,14,10.60
2013,04,25,13,15,10.60
2013,04,25,13,16,10.60
2013,04,25,13,17,10.60
2013,04,25,13,18,10.60
2013,04,25,13,19,10.60
2013,04,25,13,20,10.60
2013,04,25,13,21,10.60
2013,04,25,13,22,10.60
2013,04,25,13,23,10.60
2013,04,25,13,24,10.60
2013,04,25,13,25,10.60
2013,04,25,13,26,10.60
2013,04,25,13,27,10.60
2013,04,25,13,28,10.90
2013,04,25,13,29,10.90
2013,04,25,13,30,10.90
2013,04,25,13,31,10.90
2013,04,25,13,32,10.90
2013,04,25,13,33,10.90
2013,04,25,13,34,10.90
2013,04,25,13,35,10.90
2013,04,25,13,36,10.90
2013,04,25,13,37,10.90
2013,04,25,13,38,10.90
2013,04,25,13,39,10.90
2013,04,25,13,40,10.90
2013,04,25,13,41,10.90
2013,04,25,13,42,10.90
2013,04,25,13,43,11.30
2013,04,25,13,44,11.30
2013,04,25,13,45,11.30
2013,04,25,13,46,11.30
2013,04,25,13,47,11.30
2013,04,25,13,48,11.30
2013,04,25,13,49,11.30
2013,04,25,13,50,11.30
2013,04,25,13,51,11.30
2013,04,25,13,52,11.30
2013,04,25,13,53,11.30
2013,04,25,13,54,11.30
2013,04,25,13,55,11.30
2013,04,25,13,56,11.30
2013,04,25,13,57,11.30
2013,04,25,13,58,11.40
2013,04,25,13,59,11.40
2013,04,25,14,00,11.40
2013,04,25,14,01,11.40
2013,04,25,14,02,11.40
2013,04,25,14,03,11.40
2013,04,25,14,04,11.40
2013,04,25,14,05,11.40
2013,04,25,14,06,11.40
2013,04,25,14,07,11.40
2013,04,25,14,08,11.40
2013,04,25,14,09,11.40
2013,04,25,14,10,11.40
2013,04,25,14,11,11.40
2013,04,25,14,12,11.40
2013,04,25,14,13,12.10
2013,04,25,14,14,12.10
2013,04,25,14,15,12.10
2013,04,25,14,16,12.10
2013,04,25,14,17,12.10
2013,04,25,14,18,12.10
2013,04,25,14,19,12.10
2013,04,25,14,20,12.10
2013,04,25,14,21,12.10
2013,04,25,14,22,12.10
2013,04,25,14,23,12.10
2013,04,25,14,24,12.10
2013,04,25,14,25,12.10
2013,04,25,14,26,12.10
2013,04,25,14,27,12.10
2013,04,25,14,28,12.60
2013,04,25,14,29,12.60
2013,04,25,14,30,12.60
2013,04,25,14,31,12.60
2013,04,25,14,32,12.60
2013,04,25,14,33,12.60
2013,04,25,14,34,12.60
2013,04,25,14,35,12.60
2013,04,25,14,36,12.60
2013,04,25,14,37,12.60
2013,04,25,14,38,12.60
2013,04,25,14,39,12.60
2013,04,25,14,40,12.60
2013,04,25,14,41,12.60
2013,04,25,14,42,12.60
2013,04,25,14,43,12.10
2013,04,25,14,44,12.10
2013,04,25,14,45,12.10
2013,04,25,14,46,12.10
2013,04,25,14,47,12.10
2013,04,25,14,48,12.10
2013,04,25,14,49,12.10
2013,04,25,14,50,12.10
2013,04,25,14,51,12.10
2013,04,25,14,52,12.10
2013,04,25,14,53,12.10
2013,04,25,14,54,12.10
2013,04,25,14,55,12.10
2013,04,25,14,56,12.10
2013,04,25,14,57,12.10
2013,04,25,14,58,12.40
2013,04,25,14,59,12.40
2013,04,25,15,00,12.40
2013,04,25,15,01,12.40
2013,04,25,15,02,12.40
2013,04,25,15,03,12.40
2013,04,25,15,04,12.40
2013,04,25,15,05,12.40
2013,04,25,15,06,12.40
2013,04,25,15,07,12.40
2013,04,25,15,08,12.40
2013,04,25,15,09,12.40
2013,04,25,15,10,12.40
2013,04,25,15,11,12.40
2013,04,25,15,12,12.40
2013,04,25,15,13,12.40
2013,04,25,15,14,12.40
2013,04,25,15,15,12.40
2013,04,25,15,16,12.40
2013,04,25,15,17,12.40
2013,04,25,15,18,12.40
2013,04,25,15,19,12.40
2013,04,25,15,20,12.40
2013,04,25,15,21,12.40
2013,04,25,15,22,12.40
2013,04,25,15,23,12.40
2013,04,25,15,24,12.40
2013,04,25,15,25,12.40
2013,04,25,15,26,12.40
2013,04,25,15,27,12.40
2013,04,25,15,28,12.10
2013,04,25,15,29,12.10
2013,04,25,15,30,12.10
2013,04,25,15,31,12.10
2013,04,25,15,32,12.10
2013,04,25,15,33,12.10
2013,04,25,15,34,12.10
2013,04,25,15,35,12.10
2013,04,25,15,36,12.10
2013,04,25,15,37,12.10
2013,04,25,15,38,12.10
2013,04,25,15,39,12.10
2013,04,25,15,40,12.10
2013,04,25,15,41,12.10
2013,04,25,15,42,12.10
2013,04,25,15,43,11.70
2013,04,25,15,44,11.70
2013,04,25,15,45,11.70
2013,04,25,15,46,11.70
2013,04,25,15,47,11.70
2013,04,25,15,48,11.70
2013,04,25,15,49,11.70
2013,04,25,15,50,11.70
2013,04,25,15,51,11.70
2013,04,25,15,52,11.70
2013,04,25,15,53,11.70
2013,04,25,15,54,11.70
2013,04,25,15,55,11.70
2013,04,25,15,56,11.70
2013,04,25,15,57,11.70
2013,04,25,15,58,11.70
2013,04,25,15,59,11.70
2013,04,25,16,00,11.70
2013,04,25,16,01,11.70
2013,04,25,16,02,11.70
2013,04,25,16,03,11.70
2013,04,25,16,04,11.70
2013,04,25,16,05,11.70
2013,04,25,16,06,11.70
2013,04,25,16,07,11.70
2013,04,25,16,08,11.70
2013,04,25,16,09,11.70
2013,04,25,16,10,11.70
2013,04,25,16,11,11.70
2013,04,25,16,12,11.70
2013,04,25,16,13,11.40
2013,04,25,16,14,11.40
2013,04,25,16,15,11.40
2013,04,25,16,16,11.40
2013,04,25,16,17,11.40
2013,04,25,16,18,11.40
2013,04,25,16,19,11.40
2013,04,25,16,20,11.40
2013,04,25,16,21,11.40
2013,04,25,16,22,11.40
2013,04,25,16,23,11.40
2013,04,25,16,24,11.40
2013,04,25,16,25,11.40
2013,04,25,16,26,11.40
2013,04,25,16,27,11.40
2013,04,25,16,28,11.00
2013,04,25,16,29,11.00
2013,04,25,16,30,11.00
2013,04,25,16,31,11.00
2013,04,25,16,32,11.00
2013,04,25,16,33,11.00
2013,04,25,16,34,11.00
2013,04,25,16,35,11.00
2013,04,25,16,36,11.00
2013,04,25,16,37,11.00
2013,04,25,16,38,11.00
2013,04,25,16,39,11.00
2013,04,25,16,40,11.00
2013,04,25,16,41,11.00
2013,04,25,16,42,11.00
2013,04,25,16,43,10.90
2013,04,25,16,44,10.90
2013,04,25,16,45,10.90
2013,04,25,16,46,10.90
2013,04,25,16,47,10.90
2013,04,25,16,48,10.90
2013,04,25,16,49,10.90
2013,04,25,16,50,10.90
2013,04,25,16,51,10.90
2013,04,25,16,52,10.90
2013,04,25,16,53,10.90
2013,04,25,16,54,10.90
2013,04,25,16,55,10.90
2013,04,25,16,56,10.90
2013,04,25,16,57,10.90
2013,04,25,16,58,10.70
2013,04,25,16,59,10.70
2013,04,25,17,00,10.70
2013,04,25,17,01,10.70
2013,04,25,17,02,10.70
2013,04,25,17,03,10.70
2013,04,25,17,04,10.70
2013,04,25,17,05,10.70
2013,04,25,17,06,10.70
2013,04,25,17,07,10.70
2013,04,25,17,08,10.70
2013,04,25,17,09,10.70
2013,04,25,17,10,10.70
2013,04,25,17,11,10.70
2013,04,25,17,12,10.70
2013,04,25,17,13,10.60
2013,04,25,17,14,10.60
2013,04,25,17,15,10.60
2013,04,25,17,16,10.60
2013,04,25,17,17,10.60
2013,04,25,17,18,10.60
2013,04,25,17,19,10.60
2013,04,25,17,20,10.60
2013,04,25,17,21,10.60
2013,04,25,17,22,10.60
2013,04,25,17,23,10.60
2013,04,25,17,24,10.60
2013,04,25,17,25,10.60
2013,04,25,17,26,10.60
2013,04,25,17,27,10.60
2013,04,25,17,28,10.60
2013,04,25,17,29,10.60
2013,04,25,17,30,10.60
2013,04,25,17,31,10.60
2013,04,25,17,32,10.60
2013,04,25,17,33,10.60
2013,04,25,17,34,10.60
2013,04,25,17,35,10.60
2013,04,25,17,36,10.60
2013,04,25,17,37,10.60
2013,04,25,17,38,10.60
2013,04,25,17,39,10.60
2013,04,25,17,40,10.60
2013,04,25,17,41,10.60
2013,04,25,17,42,10.60
2013,04,25,17,43,10.40
2013,04,25,17,44,10.40
2013,04,25,17,45,10.40
2013,04,25,17,46,10.40
2013,04,25,17,47,10.40
2013,04,25,17,48,10.40
2013,04,25,17,49,10.40
2013,04,25,17,50,10.40
2013,04,25,17,51,10.40
2013,04,25,17,52,10.40
2013,04,25,17,53,10.40
2013,04,25,17,54,10.40
2013,04,25,17,55,10.40
2013,04,25,17,56,10.40
2013,04,25,17,57,10.40
2013,04,25,17,58,10.30
2013,04,25,17,59,10.30
2013,04,25,18,00,10.30
2013,04,25,18,01,10.30
2013,04,25,18,02,10.30
2013,04,25,18,03,10.30
2013,04,25,18,04,10.30
2013,04,25,18,05,10.30
2013,04,25,18,06,10.30
2013,04,25,18,07,10.30
2013,04,25,18,08,10.30
2013,04,25,18,09,10.30
2013,04,25,18,10,10.30
2013,04,25,18,11,10.30
2013,04,25,18,12,10.30
2013,04,25,18,13,10.10
2013,04,25,18,14,10.10
2013,04,25,18,15,10.10
2013,04,25,18,16,10.10
2013,04,25,18,17,10.10
2013,04,25,18,18,10.10
2013,04,25,18,19,10.10
2013,04,25,18,20,10.10
2013,04,25,18,21,10.10
2013,04,25,18,22,10.10
2013,04,25,18,23,10.10
2013,04,25,18,24,10.10
2013,04,25,18,25,10.10
2013,04,25,18,26,10.10
2013,04,25,18,27,10.10
2013,04,25,18,28,10.00
2013,04,25,18,29,10.00
2013,04,25,18,30,10.00
2013,04,25,18,31,10.00
2013,04,25,18,32,10.00
2013,04,25,18,33,10.00
2013,04,25,18,34,10.00
2013,04,25,18,35,10.00
2013,04,25,18,36,10.00
2013,04,25,18,37,10.00
2013,04,25,18,38,10.00
2013,04,25,18,39,10.00
2013,04,25,18,40,10.00
2013,04,25,18,41,10.00
2013,04,25,18,42,10.00
2013,04,25,18,43,9.80
2013,04,25,18,44,9.80
2013,04,25,18,45,9.80
2013,04,25,18,46,9.80
2013,04,25,18,47,9.80
2013,04,25,18,48,9.80
2013,04,25,18,49,9.80
2013,04,25,18,50,9.80
2013,04,25,18,51,9.80